GW1702 Weather Reports


Display with metric or nautical units.
time (UTC)temp
F
wind
direction
speed
MPH
gust
MPH
rain 1hr
in
rain 24hr
in
rain mn
in
humidity
%
barometer
mb
20260509064045 70 230 2.0 4.0 0.00 0.00 0.00 92 1011.3
20260509063025 70 223 3.0 6.0 0.00 0.00 0.00 91 1011.2
20260509062025 70 218 3.0 4.0 0.00 0.00 0.00 91 1011.4
20260509061045 70 220 2.0 4.0 0.00 0.00 0.00 91 1011.3
20260509060024 70 230 1.0 2.0 0.00 0.00 0.00 90 1011.6
20260509055024 71 242 1.0 2.0 0.00 0.00 0.00 89 1012.1
20260509054044 71 240 1.0 2.0 0.00 0.00 0.00 88 1011.9
20260509053024 71 240 1.0 2.0 0.00 0.00 0.00 87 1012.3
20260509052024 71 297 1.0 2.0 0.00 0.00 0.00 87 1012.7
20260509051024 71 296 1.0 2.0 0.00 0.00 0.00 87 1011.6
20260509050025 72 232 1.0 3.0 0.00 0.00 0.00 86 1011.3
20260509045045 72 209 3.0 8.0 0.00 0.00 0.00 85 1010.9
20260509044025 72 204 4.0 7.0 0.00 0.00 0.00 84 1011.2
20260509043043 73 217 2.0 4.0 0.00 0.00 0.00 84 1011.2
20260509042024 73 233 1.0 6.0 0.00 0.00 0.00 83 1011.0
20260509041024 73 60 2.0 6.0 0.00 0.00 0.00 83 1011.3
20260509040024 73 188 2.0 4.0 0.00 0.00 0.00 83 1011.3
20260509035024 73 323 1.0 2.0 0.00 0.00 0.00 82 1011.9
20260509034025 73 318 1.0 2.0 0.00 0.00 0.00 82 1011.7
20260509033025 73 8 1.0 2.0 0.00 0.00 0.00 82 1011.4
20260509032023 73 314 0.0 1.0 0.00 0.00 0.00 82 1011.4
20260509031023 73 354 1.0 2.0 0.00 0.00 0.00 82 1011.2
20260509030025 72 247 1.0 4.0 0.00 0.00 0.00 83 1010.8
20260509025025 72 233 1.0 3.0 0.00 0.00 0.00 83 1010.8
20260509024025 72 241 1.0 3.0 0.00 0.00 0.00 82 1010.4
20260509023026 72 234 1.0 4.0 0.00 0.00 0.00 82 1010.3
20260509022044 72 214 2.0 6.0 0.00 0.00 0.00 82 1010.1
20260509021044 72 212 1.0 3.0 0.00 0.00 0.00 81 1010.1
20260509020104 73 225 1.0 3.0 0.00 0.00 0.00 81 1010.0
20260509015024 73 225 2.0 4.0 0.00 0.00 0.00 81 1009.9
20260509014045 73 208 3.0 7.0 0.00 0.00 0.00 80 1010.1
20260509013024 73 216 3.0 7.0 0.00 0.00 0.00 80 1010.1
20260509012025 73 222 2.0 6.0 0.00 0.00 0.00 80 1009.9
20260509011025 73 239 2.0 4.0 0.00 0.00 0.00 79 1009.6
20260509010025 73 218 2.0 4.0 0.00 0.00 0.00 79 1009.5
20260509005023 73 199 3.0 10.0 0.00 0.00 0.00 78 1009.4
20260509004023 73 204 2.0 6.0 0.00 0.00 0.00 78 1009.5
20260509003024 74 192 2.0 8.0 0.00 0.00 0.00 77 1009.3
20260509002024 74 212 3.0 9.0 0.00 0.00 0.00 77 1009.3
20260509001024 74 210 2.0 7.0 0.00 0.00 0.00 76 1009.4
20260509000024 74 211 5.0 7.0 0.00 0.00 0.00 76 1009.6
20260508234044 74 211 4.0 9.0 0.00 0.00 0.00 75 1009.8
20260508233024 75 213 3.0 8.0 0.00 0.00 0.00 74 1009.7
20260508232044 76 233 2.0 4.0 0.00 0.00 0.00 72 1009.8
20260508231025 77 200 3.0 8.0 0.00 0.00 0.00 70 1009.9
20260508230105 76 222 2.0 6.0 0.00 0.00 0.00 70 1009.8
20260508225025 75 235 3.0 8.0 0.00 0.00 0.00 71 1010.0
20260508224023 76 208 7.0 11.0 0.00 0.00 0.00 71 1009.9
20260508223023 76 219 5.0 14.0 0.00 0.00 0.00 71 1009.8
20260508222024 76 209 6.0 13.0 0.00 0.00 0.00 71 1009.8
20260508221024 76 213 4.0 9.0 0.00 0.00 0.00 71 1009.7
20260508220024 75 207 4.0 11.0 0.00 0.00 0.00 72 1009.8
20260508215024 76 210 5.0 9.0 0.00 0.00 0.00 70 1009.8
20260508214035 77 206 2.0 6.0 0.00 0.00 0.00 69 1009.9
20260508213025 77 213 3.0 7.0 0.00 0.00 0.00 69 1010.1
20260508212025 78 197 2.0 4.0 0.00 0.00 0.00 66 1009.9
20260508211045 77 225 2.0 6.0 0.00 0.00 0.00 67 1010.0
20260508210023 73 213 3.0 8.0 0.00 0.00 0.00 72 1010.7
20260508205024 73 212 4.0 7.0 0.00 0.00 0.00 73 1011.3
20260508204024 73 201 4.0 9.0 0.00 0.00 0.00 72 1011.5
20260508203024 74 198 7.0 13.0 0.00 0.00 0.00 71 1012.0
20260508202024 74 212 4.0 9.0 0.00 0.00 0.00 71 1011.9
20260508201024 75 200 4.0 10.0 0.00 0.00 0.00 70 1011.8
20260508200025 76 217 2.0 4.0 0.00 0.00 0.00 69 1011.9
20260508195025 76 207 4.0 10.0 0.00 0.00 0.00 67 1011.7
20260508194105 77 215 4.0 8.0 0.00 0.00 0.00 67 1011.9
20260508193024 76 205 4.0 8.0 0.00 0.00 0.00 68 1012.0
20260508192024 76 206 6.0 9.0 0.00 0.00 0.00 68 1012.2
20260508191024 77 207 4.0 11.0 0.00 0.00 0.00 67 1012.1
20260508190024 77 207 6.0 13.0 0.00 0.00 0.00 66 1012.1
20260508185024 79 223 2.0 7.0 0.00 0.00 0.00 64 1012.2
20260508184024 77 213 2.0 7.0 0.00 0.00 0.00 65 1012.3
20260508183045 78 198 3.0 9.0 0.00 0.00 0.00 65 1012.3
20260508182025 80 228 2.0 7.0 0.00 0.00 0.00 61 1012.6
20260508181025 76 225 2.0 6.0 0.00 0.00 0.00 66 1012.8
20260508180025 76 212 3.0 9.0 0.00 0.00 0.00 65 1013.1
20260508175023 76 223 3.0 9.0 0.00 0.00 0.00 65 1013.1
20260508174023 75 206 4.0 9.0 0.00 0.00 0.00 66 1013.3
20260508173044 75 204 4.0 10.0 0.00 0.00 0.00 65 1013.3
20260508172044 74 213 3.0 8.0 0.00 0.00 0.00 65 1013.5
20260508171024 75 163 3.0 8.0 0.00 0.00 0.00 64 1013.8
20260508170024 72 223 2.0 8.0 0.00 0.00 0.00 67 1014.2
20260508165024 72 211 5.0 9.0 0.00 0.00 0.00 67 1014.3
20260508164045 73 197 3.0 8.0 0.00 0.00 0.00 66 1014.4
20260508163045 72 204 4.0 9.0 0.00 0.00 0.00 66 1014.7
20260508162025 71 209 4.0 9.0 0.00 0.00 0.00 68 1015.0
20260508161045 71 172 3.0 8.0 0.00 0.00 0.00 68 1015.0
20260508160025 71 241 2.0 4.0 0.00 0.00 0.00 68 1015.1
20260508155023 69 209 2.0 6.0 0.00 0.00 0.00 70 1015.2
20260508154023 69 198 3.0 9.0 0.00 0.00 0.00 70 1015.5
20260508153023 69 220 2.0 7.0 0.00 0.00 0.00 70 1015.5
20260508152024 68 197 3.0 8.0 0.00 0.00 0.00 70 1015.6
20260508151024 67 213 3.0 8.0 0.00 0.00 0.00 71 1015.5
20260508150024 67 217 4.0 7.0 0.00 0.00 0.00 71 1015.6
20260508145024 67 220 3.0 7.0 0.00 0.00 0.00 71 1015.3
20260508144025 67 201 2.0 7.0 0.00 0.00 0.00 70 1015.4
20260508143025 67 206 4.0 10.0 0.00 0.00 0.00 71 1015.6
20260508142025 67 210 5.0 13.0 0.00 0.00 0.00 70 1015.8
20260508141023 68 235 2.0 7.0 0.00 0.00 0.00 70 1015.7
20260508140045 68 147 3.0 6.0 0.00 0.00 0.00 70 1015.7
20260508135046 67 119 2.0 6.0 0.00 0.00 0.00 71 1015.7
20260508134023 67 250 1.0 3.0 0.00 0.00 0.00 72 1015.7
20260508133024 65 229 1.0 4.0 0.00 0.00 0.00 74 1015.6
20260508132024 65 169 1.0 4.0 0.00 0.00 0.00 78 1015.7
20260508131024 64 249 1.0 2.0 0.00 0.00 0.00 78 1015.8
20260508130024 64 223 1.0 4.0 0.00 0.00 0.00 78 1015.8
20260508125024 64 302 1.0 3.0 0.00 0.00 0.00 80 1015.9
20260508124024 63 243 0.0 2.0 0.00 0.00 0.00 81 1015.9
20260508123025 63 245 1.0 3.0 0.00 0.00 0.00 81 1016.2
20260508122023 63 236 1.0 3.0 0.00 0.00 0.00 81 1015.9
20260508121023 63 237 1.0 3.0 0.00 0.00 0.00 82 1015.8
20260508120025 63 252 1.0 4.0 0.00 0.00 0.00 82 1016.0
20260508115045 63 238 1.0 3.0 0.00 0.00 0.00 82 1016.1
20260508114144 63 235 1.0 4.0 0.00 0.00 0.00 82 1016.0
20260508113024 63 232 1.0 3.0 0.00 0.00 0.00 82 1016.0
20260508112024 63 242 1.0 3.0 0.00 0.00 0.00 84 1015.6
20260508111024 62 175 2.0 3.0 0.00 0.00 0.00 85 1015.5
20260508110024 63 221 1.0 2.0 0.00 0.00 0.00 85 1016.4
20260508105024 63 282 1.0 3.0 0.00 0.00 0.00 84 1016.5
20260508104024 63 299 1.0 1.0 0.00 0.00 0.00 84 1015.7
20260508103025 62 253 1.0 2.0 0.00 0.00 0.00 84 1015.3
20260508102025 62 256 0.0 1.0 0.00 0.00 0.00 84 1015.1
20260508101025 63 237 1.0 3.0 0.00 0.00 0.00 83 1015.0
20260508100025 63 235 2.0 7.0 0.00 0.00 0.00 81 1015.1
20260508095024 63 224 2.0 4.0 0.00 0.00 0.00 80 1014.9
20260508094024 63 236 1.0 3.0 0.00 0.00 0.00 81 1015.2
20260508093044 63 242 0.0 2.0 0.00 0.00 0.00 82 1015.1
20260508092024 63 0.0 0.0 0.00 0.00 0.00 81 1015.3
20260508091024 63 296 0.0 1.0 0.00 0.00 0.00 81 1015.3
20260508090025 63 291 0.0 1.0 0.00 0.00 0.00 80 1015.2
20260508085025 64 291 0.0 1.0 0.00 0.00 0.00 79 1015.6
20260508084045 63 224 2.0 4.0 0.00 0.00 0.00 80 1015.3
20260508083025 63 77 1.0 4.0 0.00 0.00 0.00 81 1015.3
20260508082023 63 232 1.0 2.0 0.00 0.00 0.00 82 1015.9
20260508081024 63 0.0 0.0 0.00 0.00 0.00 82 1016.3
20260508080024 63 9 1.0 2.0 0.00 0.00 0.00 82 1016.4
20260508075034 63 303 0.0 1.0 0.00 0.00 0.00 81 1017.0
20260508074024 63 0.0 0.0 0.00 0.00 0.00 80 1016.7
20260508073024 63 296 0.0 1.0 0.00 0.00 0.00 80 1016.2
20260508072025 63 262 0.0 1.0 0.00 0.00 0.00 81 1016.1
20260508071023 62 0.0 0.0 0.00 0.00 0.00 81 1016.4
20260508070025 62 290 0.0 1.0 0.00 0.00 0.00 82 1016.4
20260508065045 62 349 1.0 2.0 0.00 0.00 0.00 83 1016.4